Zurück zum Katalog

STARLINK-4503

AktivKommunikationVLEO
NORAD 53528·PAYLOAD·🇺🇸 United States

Gestartet Aug 19, 2022 von Cape Canaveral Space Force Station

Loading…

Nächste Überflüge (nächste 24 Stunden)

TLE

AktuellSource: CelesTrak SupGP

Epoche: Sep 14, 2026, 13:58 UTC

1 53528C 22101B   26257.58243056  .00045209  00000+0  28355-2 0  2575
2 53528  53.1599 305.5228 0001240  77.6542  23.9904 15.08807279    15

Verfolge STARLINK-4503 in Echtzeit mit AllMySat

Download on the App Store